STARLINK-31812, 59800

Orbit data source: Space-Track

STARLINK-31812, 59800 is a payload satellite owned by SpaceX/Seattle (US) in LEO that was launched on Sat, 18 May 2024 UTC via an FALCON 9 launch vehicle from the Air Force Eastern Test Range (AFETR). Payload-class satellites include a variety of spacecraft equipped with specific instruments for various scientific and technological missions. These include communications satellites like Starlink; space stations such as the ISS; scientific satellites like the Hubble; Earth observation satellites from companies like Planet Labs, Umbra, and HawkEye 360; GPS; miniature CubeSats for education and research; and military/defense satellites.

Loading next visibility...
Identifier
59800, 2024-093U
Orbit
LEO
Country
Flag of USUS
Related business
Manufacturer
SpaceX/Seattle
Mission
Operational spacecraft
Bus & Motor
STARLINK V2M, Unknown motor
Mass
730 kg wet, ~700 kg dry
Launch date (UTC)
2024-05-18 (1 year ago)
Launch vehicle
FALCON 9
Launch site
Air Force Eastern Test Range (AFETR)
Object type
Payload
Rocket body
Debris
Shape & HBR
Unknown shape, 17.7 m
Radar Cross Section
Large (>1 m²)

Expand to show TLE details & history
Last TLE update: 22 hours ago

TLE from 22 hours ago
0 STARLINK-31812
1 59800U 24093U   25291.73090371  .00000139  00000-0  14559-4 0  9990
2 59800  43.0029 290.6952 0000597 259.2183 100.8602 15.27568854 81058
Epoch: 2025-10-18T17:32Z
TLE epoch observation values (Epoch: 2025-10-18T17:32:30.080Z)
Latitude
0.00001°
Longitude
0.11216°
Altitude
482.935 km
Speed
7.626 km/s
True Right ascension
19h 22m 46s
True Declination
0° 00' 00"
Sunlit
Object was in daylight at epoch
Visualization orbit readout
Latitude
Unknown
Longitude
Unknown
Altitude
Unknown
Speed
Unknown
Apparent Right ascension
Unknown
Apparent Declination
Unknown
Sunlit
N/A
Visualization observer readout
Local Sidereal Time
10:51:18
Azimuth
Unknown
Elevation
Unknown
Doppler factor
Unknown
Orbital elements
Apogee altitude
485.437 km
Perigee altitude
484.617 km
Semi-major axis
6,863.164 km
Eccentricity
0.00006
Inclination
43.0029°
RAAN
290.6952°
Arg. of periapsis
259.2183°
True anomaly
100.86692°
Mean anomaly
100.8602°
Eccentric anomaly
100.86356°
Mean motion
3.8173 °/min
Orbital period
94.31 mins
BSTAR
0.000014559
Loading maneuver chart data...
Computing Atmospheric mass density...
Loading historical data...
Loading historical data...
Loading historical data...
Loading historical data...
Loading historical data...
Loading historical data...
Loading historical data...

Documentation

Showing up to 5 results
|